Weather in Protasovo

Russia / Oryol Oblast     53°04′15″N   36°29′35″E
temp.,
°C
wind,
m/s
gust,
m/s
humid.,
%
clouds,
%
prec.,
mm/h
press.,
hPa
HPBL,
m
17 september, fri
fri1700:00+4ene2282100 0.0 102130
03:00+4e1183100 0.0 102010
06:00+4ene128491 0.0 102011
09:00+9ene2262100 0.0 1019428
12:00+11ese215299 0.0 10181040
15:00+10wsw3266100 0.3 1018303
18:00+8nw1180100 0.4 101754
21:00+7ne3786100 2.2 1018371
18 september, sat
sat1800:00+7e61188100 1.9 1018494
03:00+7e61281100 2.0 1018574
06:00+6e71382100 1.1 1018586
09:00+5e81584100 3.1 1018595
12:00+5e91689100 4.0 1018619
15:00+5e91693100 9.3 1018589
18:00+6e91794100 4.9 1017568
21:00+6ese91895100 13.1 1017565
19 september, sun
sun1900:00+6ese91895100 5.5 1016580
03:00+7ese92096100 13.0 1014698
06:00+7ese91694100 7.4 1013695
09:00+7ese101794100 14.5 1013538
12:00+7ese101793100 2.9 1012722
15:00+7ese81693100 4.0 1012664
18:00+8ese71495100 0.4 1012607
21:00+8ese61197100 0.7 1011475
20 september, mon
mon2000:00+8e61097100 0.0 1011392
03:00+8e61198100 0.1 1010453
06:00+8e61298100 0.1 1009409
09:00+9e71297100 0.9 1009491
12:00+8e61197100 2.2 1009400
15:00+9ese4997100 2.8 1010442
18:00+9se1298100 0.7 101097
21:00+9sw2396100 0.9 101186
21 september, tue
tue2100:00+8sw2595100 0.8 1011289
03:00+7sw2492100 0.8 1011250
06:00+7s2593100 0.2 1012307
09:00+8s4691100 0.3 1012416
12:00+8ssw4792100 0.2 1012612
15:00+8sw4789100 0.3 1013787
18:00+7ssw3790100 0.1 1013509
21:00+7ssw3692100 0.3 1013405